This is the latest recevied weather packets stored in our database for station/object W6JCZ-13. If no packets are shown the sender has not sent any weather packets the latest 10 day(s).
| Time | Temp. | Humidity | Pressure | Rain* | Wind** | Luminosity | Snow |
|---|---|---|---|---|---|---|---|
| 1777917915 | 16.11° C | 68% | 1013.1 hPa | 0 mm | - | - | - |
| 1777917315 | 16.11° C | 68% | 1013.2 hPa | 0 mm | - | - | - |
| 1777916716 | 16.11° C | 69% | 1013.2 hPa | 0 mm | - | - | - |
| 1777916116 | 16.11° C | 69% | 1013.2 hPa | 0 mm | - | - | - |
| 1777915516 | 16.67° C | 68% | 1013 hPa | 0 mm | - | - | - |
| 1777914915 | 16.67° C | 69% | 1013.1 hPa | 0 mm | - | - | - |
| 1777914316 | 17.22° C | 68% | 1013.1 hPa | 0 mm | - | - | - |
| 1777913716 | 17.22° C | 67% | 1013 hPa | 0 mm | - | - | - |
| 1777913116 | 16.67° C | 70% | 1013 hPa | 0 mm | - | - | - |
| 1777912516 | 16.67° C | 72% | 1012.9 hPa | 0 mm | - | - | - |
| 1777911916 | 16.67° C | 71% | 1012.9 hPa | 0 mm | - | - | - |
| 1777911318 | 15.56° C | 71% | 1012.6 hPa | 0 mm | - | - | - |
| 1777910718 | 15.56° C | 73% | 1012.6 hPa | 0 mm | - | - | - |
| 1777910118 | 15° C | 76% | 1012.5 hPa | 0 mm | - | - | - |
| 1777909518 | 14.44° C | 77% | 1012.5 hPa | 0 mm | - | - | - |
| 1777908918 | 13.89° C | 78% | 1012.4 hPa | 0 mm | - | - | - |
| 1777908317 | 13.33° C | 81% | 1012.4 hPa | 0 mm | - | - | - |
| 1777907718 | 13.33° C | 81% | 1012.4 hPa | 0 mm | - | - | - |
| 1777907117 | 12.78° C | 82% | 1012.2 hPa | 0 mm | - | - | - |
| 1777906517 | 12.78° C | 83% | 1012.3 hPa | 0 mm | - | - | - |
| 1777905917 | 12.22° C | 84% | 1012.3 hPa | 0 mm | - | - | - |
| 1777905318 | 12.22° C | 84% | 1012.2 hPa | 0 mm | - | - | - |
| 1777904715 | 11.67° C | 84% | 1012.1 hPa | 0 mm | - | - | - |
| 1777904118 | 11.67° C | 85% | 1012.1 hPa | 0 mm | - | - | - |
| 1777903518 | 11.11° C | 87% | 1012.2 hPa | 0 mm | - | - | - |
* Rain latest hour (hover to see other rain measurements)
** Current wind speed in m/s (hover to see current wind gust speed)